Regional Weather Roundup
Issued by NWS

Home | Current Version | Previous Version | Text Only | Print | Product List | Glossary On
Versions: 1 2 3 4 5 6 7 8 9 10 11 12 13 14 15 16 17 18 19 20 21 22 23 24 25 26 27 28 29 30 31 32 33 34 35 36 37 38 39 40 41 42 43 44 45 46 47 48 49 50
000
ASUS44 KBMX 132210
RWRAL

ALABAMA REGIONAL WEATHER ROUNDUP
NATIONAL WEATHER SERVICE BIRMINGHAM AL
500 PM CDT SUN JUL 13 2014

NOTE: "FAIR" INDICATES FEW OR NO CLOUDS BELOW 12,000 FEET
WITH NO SIGNIFICANT WEATHER AND/OR OBSTRUCTIONS TO VISIBILITY.

THE REMARK "TC" DENOTES TEMPERATURE IN DEGREES CELSIUS.

ALZ001>011-014-016>018-020-132300-
NORTH ALABAMA

CITY           SKY/WX    TMP DP  RH WIND       PRES   REMARKS
MUSCLE SHOALS  SUNNY     92  68  45 SW6       30.03F HX  96
HUNTSVILLE     PTSUNNY   88  71  57 SW5       30.03F HX  94
DECATUR        PTSUNNY   86  75  69 SE5       30.03F HX  95
HALEYVILLE     FAIR      89  74  61 SW6       30.07F HX  97
GADSDEN        PTSUNNY   91  66  43 SW3       30.02S HX  94
$$

ALZ012-013-022-023-030>036-040>044-132300-
WEST CENTRAL ALABAMA

CITY           SKY/WX    TMP DP  RH WIND       PRES   REMARKS
TUSCALOOSA     MOSUNNY   91  71  51 W9        30.02F HX  97
$$

ALZ015-024>027-033>036-040>044-132300-
CENTRAL ALABAMA

CITY           SKY/WX    TMP DP  RH WIND       PRES   REMARKS
BIRMINGHAM     LGT RAIN  83  72  69 N7        30.05F
MONTGOMERY     PTSUNNY   94  69  44 S7        30.03F HX  99
SHELBY CO ARPT PTSUNNY   91  70  49 SW8       30.03F HX  96
MAXWELL AFB    SUNNY     92  71  50 NW5       30.03F HX  98
GREENVILLE     FAIR      88  69  53 S3        30.04F HX  92
$$

ALZ019-021-028-029-037-038-045>048-132300-
EAST CENTRAL ALABAMA

CITY           SKY/WX    TMP DP  RH WIND       PRES   REMARKS
ANNISTON       PTSUNNY   91  69  48 S7        30.03F HX  96
ALEXANDER CITY MOSUNNY   91  65  42 SW6       30.07F HX  93
AUBURN         SUNNY     88  64  45 S6        30.10F
$$

ALZ051>064-132300-
SOUTHWEST ALABAMA

CITY           SKY/WX    TMP DP  RH WIND       PRES   REMARKS
MOBILE         PTSUNNY   87  73  62 S9        30.05F HX  94
BROOKLEY FIELD PTSUNNY   87  75  67 S9        30.05F HX  96
EVERGREEN      MOSUNNY   92  71  50 SW3       30.03F HX  98
$$

ALZ049-050-065>069-132300-
SOUTHEAST ALABAMA

CITY           SKY/WX    TMP DP  RH WIND       PRES   REMARKS
DOTHAN         SUNNY     90  68  48 W8        30.07F HX  94
OZARK          MOSUNNY   91  71  51 VRB3      30.04S HX  96
TROY           SUNNY     90  68  48 VRB5      30.05F HX  94
EUFAULA        FAIR      94  63  35 CALM      30.02F HX  95
$$


USA.gov is the U.S. government's official web portal to all federal, state and local government web resources and services.